Temp
72 73 74 74 74 74 75 74 75 74 73 73 74 73 73 73 73 73 73 73 73 72 72 73 73 73 75 75 75 75 74 74 74 74 74 73 73 73 72 71 71 71 71 70 69 68 68 67 67 66 66 65
71 72 73 73 73 74 74 74 74 73 73 73 73 73 72 72 72 71 73 72 72 71 71 71 71 72 74 75 75 73 74 74 74 74 74 73 73 72 71 71 71 70 69 68 68 68 67 66 66 65 65 65
71 70 71 71 72 73 73 73 72 72 71 71 71 70 71 71 71 71 72 72 71 71 70 71 71 71 72 74 74 73 73 74 74 74 73 73 72 71 71 70 70 69 68 68 67 67 66 66 65 65 66 66
71 70 70 70 71 71 71 71 71 70 70 70 69 69 69 70 70 70 71 71 70 70 70 70 69 70 71 72 74 73 73 74 74 73 73 71 71 71 69 69 69 69 69 68 67 66 66 65 65 67 67 67
71 70 69 69 70 70 70 70 69 68 68 67 67 67 67 68 70 69 69 70 69 69 69 68 68 69 69 70 72 72 72 73 73 73 72 71 70 69 69 68 68 68 68 67 66 66 65 65 67 67 67 67
71 71 69 70 70 70 70 69 69 68 69 69 68 66 67 69 70 69 68 68 68 67 67 66 66 67 68 69 70 71 72 72 72 71 71 70 70 69 68 67 64 66 66 66 66 65 64 67 67 67 67 67
70 70 70 70 70 70 69 69 68 68 68 68 68 68 68 69 69 68 67 67 67 66 65 66 65 66 67 68 68 69 70 69 69 70 70 70 69 67 67 63 62 64 65 65 65 65 66 66 66 66 67 66
69 70 70 70 70 69 69 68 68 68 68 67 68 68 69 69 68 67 66 67 67 66 65 64 64 65 65 66 67 67 67 68 67 68 68 68 67 65 62 62 64 65 64 64 65 65 65 65 65 66 66 66
68 69 70 70 70 69 69 69 68 68 67 67 67 68 68 68 66 66 66 65 65 64 63 63 64 64 63 63 64 65 64 64 65 65 64 65 63 62 63 63 63 64 62 63 64 64 64 64 65 65 66 66
69 69 69 69 69 69 69 68 68 67 67 67 68 68 67 66 66 65 65 64 63 62 63 62 62 61 62 63 63 64 64 63 62 62 63 63 62 62 63 63 63 62 62 62 62 63 63 64 64 65 65 66
69 68 69 69 69 68 67 68 67 66 67 67 68 68 66 65 65 64 64 63 63 62 63 62 62 62 62 62 62 63 64 63 63 63 62 61 60 60 61 62 61 61 61 61 62 62 62 62 62 63 64 65
68 68 68 68 68 68 67 67 67 66 67 68 68 67 66 66 65 64 63 63 62 62 62 61 62 62 62 62 62 63 64 63 63 62 61 61 60 61 61 61 60 59 59 60 62 61 61 60 61 61 61 61
67 67 68 67 67 68 65 67 67 67 68 68 68 67 66 66 65 64 64 63 62 62 62 62 62 63 63 63 62 62 62 63 62 61 61 61 60 59 59 58 58 58 58 58 61 60 59 59 59 60 59 59
66 66 66 67 67 68 65 67 67 67 67 68 68 67 66 66 65 64 64 63 63 63 62 62 63 63 63 64 63 62 61 62 62 61 60 60 59 58 58 57 56 57 56 57 58 59 58 58 58 58 58 57
64 66 66 66 67 67 66 68 67 66 67 67 68 67 66 66 65 65 64 64 63 63 62 62 63 63 64 64 64 62 61 63 62 61 60 59 57 58 57 55 56 56 55 55 56 58 57 56 56 56 56 57
63 65 66 66 67 66 66 67 66 66 66 66 67 67 66 65 65 65 64 64 63 63 62 63 63 63 63 63 64 62 61 61 61 60 59 58 57 57 56 55 55 56 55 53 54 56 55 55 55 54 55 55
61 61 65 66 66 66 66 66 66 65 65 66 67 67 66 65 65 65 64 64 63 62 63 63 63 62 63 63 63 62 60 59 59 57 57 57 57 56 54 54 53 54 54 53 53 56 55 54 53 53 54 53
60 60 61 65 66 65 67 65 65 65 65 65 66 67 66 66 65 65 65 64 63 63 63 63 63 62 62 63 62 61 59 58 57 56 56 55 56 54 53 52 53 52 51 51 52 53 53 53 53 52 50 50
59 61 60 63 65 65 66 65 65 65 66 65 65 67 66 65 64 64 64 64 64 63 63 63 62 62 62 63 61 60 58 57 56 56 55 56 55 53 52 51 51 52 50 50 50 51 51 51 51 51 50 50
58 59 60 61 63 65 66 65 66 65 66 66 66 66 66 66 64 64 64 64 64 63 63 63 62 62 62 61 60 59 57 56 56 56 55 55 55 52 51 51 50 51 50 50 50 50 50 49 49 49 49 48
57 57 58 59 61 65 65 65 65 65 67 66 66 67 66 66 65 64 64 64 64 63 62 63 63 62 62 61 59 57 56 56 55 55 54 53 54 54 51 50 49 48 50 49 48 48 47 47 48 47 47 46
57 57 58 59 60 62 64 65 65 65 66 65 65 66 66 66 65 65 64 64 64 64 63 63 62 62 61 60 58 57 56 55 55 55 54 52 53 54 52 49 48 46 48 49 47 46 46 44 44 44 45 46
57 57 58 58 58 60 63 64 64 65 66 66 65 66 66 66 65 65 65 65 64 64 63 62 62 61 60 60 58 57 55 54 54 54 54 53 52 53 53 51 49 48 47 47 46 45 45 43 43 43 44 44
56 56 56 55 55 57 61 63 63 64 64 66 65 65 66 66 66 65 65 65 65 64 63 62 61 60 60 59 58 56 54 53 53 53 52 52 52 51 50 51 50 48 46 46 46 45 45 45 45 44 44 43
55 54 54 56 56 56 60 62 63 63 64 65 65 65 66 66 66 66 65 65 65 64 62 62 61 60 59 59 58 57 55 55 54 54 54 52 52 50 48 47 48 48 48 44 42 44 45 44 45 45 44 44
53 55 55 55 55 56 56 61 61 62 63 64 64 64 65 65 66 66 65 65 65 64 63 61 61 60 59 58 58 57 56 55 54 54 53 52 51 52 49 46 47 47 47 44 42 39 39 42 44 44 44 44
52 53 54 53 52 55 54 57 63 62 63 63 63 63 64 65 65 65 65 64 64 63 62 62 61 60 60 59 58 57 55 55 54 54 53 53 51 49 49 48 48 48 51 42 43 44 41 37 38 41 42 44
50 51 53 54 54 54 54 53 55 62 61 62 62 61 62 63 63 63 64 64 63 63 62 61 61 60 60 59 59 57 55 54 54 54 53 53 52 51 46 46 46 50 51 48 45 40 43 40 41 37 38 38
50 51 52 54 53 53 53 54 55 55 58 59 60 60 60 60 61 61 60 62 63 63 62 61 60 59 58 58 58 57 56 55 54 54 54 54 52 51 49 46 47 49 50 49 54 47 42 39 40 42 38 37
50 51 52 52 53 52 52 52 51 52 51 55 58 59 59 58 59 59 58 58 60 60 61 60 60 58 57 55 56 56 55 55 55 54 54 54 53 52 52 49 47 47 49 51 52 49 48 49 45 38 37 40
50 50 51 51 51 53 52 52 53 52 52 51 52 54 56 57 57 58 56 55 57 58 59 59 58 56 56 55 54 54 55 54 54 54 55 55 54 53 51 50 47 47 47 49 50 49 46 46 46 44 40 37
MSLP
1012.32 1012.23 1012.28 1012.28 1012.40 1012.76 1013.11 1013.43 1013.84 1014.35 1014.91 1015.47 1015.88 1016.16 1016.55 1016.79 1016.99 1017.32 1017.55 1017.79 1017.96 1018.23 1018.43 1018.55 1018.72 1018.84 1018.99 1019.23 1019.43 1019.59 1019.88 1019.99 1020.16 1020.32 1020.55 1020.79 1020.99 1021.16 1021.28 1021.47 1021.55 1021.64 1021.72 1021.79 1021.84 1021.91 1021.99 1022.03 1022.11 1022.20 1022.23 1022.47
1012.59 1012.47 1012.40 1012.40 1012.40 1012.59 1012.91 1013.20 1013.47 1013.96 1014.55 1015.11 1015.55 1015.99 1016.47 1016.84 1017.08 1017.40 1017.47 1017.64 1018.03 1018.40 1018.59 1018.67 1018.84 1018.96 1019.03 1019.20 1019.47 1019.76 1019.99 1020.11 1020.23 1020.40 1020.59 1020.88 1021.11 1021.23 1021.43 1021.55 1021.64 1021.72 1021.79 1021.84 1021.91 1021.99 1022.08 1022.20 1022.28 1022.32 1022.40 1022.59
1012.72 1012.64 1012.59 1012.55 1012.55 1012.59 1012.76 1013.03 1013.28 1013.59 1014.11 1014.76 1015.28 1015.91 1016.35 1016.76 1017.16 1017.47 1017.43 1017.59 1017.96 1018.40 1018.64 1018.84 1018.99 1019.11 1019.16 1019.32 1019.55 1019.88 1020.08 1020.23 1020.28 1020.43 1020.72 1020.96 1021.20 1021.40 1021.55 1021.64 1021.76 1021.79 1021.88 1021.91 1022.03 1022.11 1022.20 1022.32 1022.43 1022.47 1022.55 1022.76
1012.55 1012.72 1012.72 1012.67 1012.67 1012.72 1012.76 1012.91 1013.20 1013.47 1013.84 1014.35 1015.03 1015.55 1016.03 1016.59 1017.11 1017.40 1017.55 1017.64 1017.88 1018.28 1018.64 1018.91 1019.16 1019.23 1019.35 1019.52 1019.67 1019.96 1020.16 1020.28 1020.32 1020.59 1020.84 1021.11 1021.35 1021.52 1021.67 1021.79 1021.79 1021.88 1021.91 1021.99 1022.11 1022.23 1022.32 1022.43 1022.55 1022.67 1022.79 1022.99
1012.16 1012.59 1012.79 1012.88 1012.84 1012.84 1012.88 1012.96 1013.20 1013.52 1013.76 1014.23 1014.72 1015.28 1015.84 1016.40 1016.91 1017.23 1017.47 1017.76 1017.91 1018.20 1018.55 1018.88 1019.20 1019.40 1019.59 1019.76 1019.84 1020.03 1020.23 1020.32 1020.47 1020.72 1021.03 1021.28 1021.43 1021.67 1021.79 1021.88 1021.91 1021.96 1022.03 1022.16 1022.23 1022.32 1022.43 1022.55 1022.72 1022.88 1023.03 1023.16
1011.67 1012.11 1012.64 1012.88 1012.96 1012.99 1013.08 1013.20 1013.35 1013.67 1013.88 1014.16 1014.59 1015.08 1015.59 1016.08 1016.47 1016.91 1017.28 1017.67 1017.91 1018.23 1018.47 1018.79 1019.11 1019.43 1019.67 1019.91 1020.03 1020.16 1020.32 1020.47 1020.64 1020.91 1021.20 1021.40 1021.59 1021.76 1021.91 1021.96 1022.03 1022.11 1022.20 1022.28 1022.35 1022.43 1022.55 1022.72 1022.91 1023.03 1023.16 1023.32
1010.91 1011.43 1012.08 1012.55 1012.84 1012.99 1013.08 1013.20 1013.40 1013.64 1013.91 1014.23 1014.52 1014.76 1015.16 1015.64 1016.08 1016.55 1017.03 1017.43 1017.84 1018.11 1018.40 1018.64 1018.96 1019.32 1019.67 1019.96 1020.16 1020.32 1020.43 1020.64 1020.91 1021.11 1021.32 1021.52 1021.72 1021.91 1022.08 1022.23 1022.28 1022.32 1022.40 1022.52 1022.52 1022.67 1022.76 1022.96 1023.11 1023.20 1023.32 1023.52
1010.40 1010.67 1011.23 1011.88 1012.40 1012.76 1012.96 1013.11 1013.32 1013.52 1013.79 1014.16 1014.43 1014.64 1014.96 1015.28 1015.76 1016.32 1016.84 1017.28 1017.72 1018.03 1018.43 1018.72 1018.88 1019.20 1019.52 1019.88 1020.16 1020.43 1020.72 1020.91 1021.16 1021.40 1021.55 1021.67 1021.88 1022.08 1022.35 1022.40 1022.43 1022.43 1022.64 1022.67 1022.79 1022.88 1022.99 1023.20 1023.32 1023.40 1023.59 1023.79
1010.08 1010.20 1010.59 1011.16 1011.76 1012.28 1012.64 1012.96 1013.11 1013.32 1013.59 1013.91 1014.32 1014.64 1014.84 1015.11 1015.55 1016.11 1016.72 1017.23 1017.72 1018.08 1018.40 1018.72 1018.99 1019.23 1019.52 1019.76 1020.16 1020.43 1020.91 1021.16 1021.40 1021.55 1021.79 1021.96 1022.20 1022.32 1022.40 1022.52 1022.55 1022.67 1022.88 1022.79 1023.03 1023.03 1023.32 1023.40 1023.52 1023.67 1023.79 1023.96
1009.99 1010.08 1010.35 1010.76 1011.28 1011.79 1012.32 1012.76 1012.99 1013.20 1013.40 1013.67 1014.03 1014.43 1014.76 1015.16 1015.55 1015.99 1016.55 1017.08 1017.55 1017.99 1018.28 1018.67 1018.99 1019.28 1019.47 1019.79 1020.11 1020.32 1020.84 1021.28 1021.52 1021.79 1021.96 1022.23 1022.35 1022.40 1022.43 1022.55 1022.72 1022.91 1022.99 1023.03 1023.32 1023.32 1023.59 1023.64 1023.76 1023.88 1023.99 1024.11
1010.35 1010.16 1010.20 1010.43 1010.84 1011.40 1011.96 1012.40 1012.84 1013.08 1013.23 1013.32 1013.59 1014.08 1014.59 1014.99 1015.43 1015.88 1016.40 1016.91 1017.35 1017.84 1018.16 1018.59 1018.91 1019.20 1019.43 1019.72 1020.08 1020.32 1020.67 1021.08 1021.43 1021.76 1022.11 1022.35 1022.43 1022.47 1022.59 1022.76 1022.96 1023.08 1023.16 1023.32 1023.35 1023.52 1023.88 1023.91 1024.04 1024.16 1024.28 1024.35
1010.64 1010.43 1010.40 1010.47 1010.79 1011.20 1011.59 1012.08 1012.52 1012.84 1012.91 1013.08 1013.35 1013.76 1014.28 1014.72 1015.16 1015.64 1016.20 1016.72 1017.11 1017.55 1017.99 1018.47 1018.79 1019.08 1019.40 1019.67 1020.03 1020.32 1020.64 1020.96 1021.32 1021.67 1022.08 1022.32 1022.52 1022.64 1022.84 1023.03 1023.11 1023.28 1023.40 1023.59 1023.47 1023.72 1024.16 1024.31 1024.40 1024.52 1024.68 1024.80
1010.23 1010.40 1010.43 1010.52 1010.64 1011.03 1011.40 1011.88 1012.23 1012.55 1012.76 1012.96 1013.16 1013.47 1013.91 1014.35 1015.03 1015.52 1015.84 1016.35 1016.84 1017.28 1017.76 1018.28 1018.64 1018.96 1019.23 1019.55 1019.91 1020.23 1020.67 1020.99 1021.35 1021.72 1021.91 1022.20 1022.59 1022.88 1023.08 1023.16 1023.40 1023.52 1023.67 1023.79 1023.76 1023.88 1024.40 1024.71 1024.83 1024.92 1025.07 1025.16
1010.72 1010.16 1010.47 1010.47 1010.43 1010.59 1011.32 1011.64 1012.03 1012.43 1012.67 1012.84 1012.99 1013.32 1013.55 1013.91 1014.40 1015.11 1015.47 1016.03 1016.55 1016.91 1017.59 1018.03 1018.43 1018.76 1019.03 1019.32 1019.72 1020.08 1020.55 1020.91 1021.23 1021.67 1021.91 1022.20 1022.59 1022.91 1023.11 1023.40 1023.72 1023.76 1023.96 1023.99 1024.07 1024.07 1024.52 1025.11 1025.23 1025.31 1025.40 1025.52
1011.88 1010.43 1009.84 1009.91 1010.20 1010.40 1010.79 1011.28 1011.79 1012.23 1012.52 1012.76 1012.88 1013.16 1013.35 1013.72 1014.16 1014.79 1015.32 1015.76 1016.32 1016.84 1017.28 1017.84 1018.23 1018.52 1018.79 1019.20 1019.52 1019.88 1020.40 1020.76 1021.16 1021.55 1021.84 1022.16 1022.52 1022.84 1023.11 1023.64 1023.91 1023.96 1024.19 1024.19 1024.40 1024.52 1024.64 1025.35 1025.59 1025.68 1025.80 1025.88
1011.40 1011.43 1009.91 1009.59 1009.67 1009.99 1010.47 1010.91 1011.47 1011.84 1012.23 1012.55 1012.79 1013.08 1013.43 1013.67 1014.03 1014.52 1015.08 1015.55 1016.16 1016.59 1017.11 1017.64 1017.99 1018.32 1018.64 1018.99 1019.35 1019.76 1020.16 1020.64 1021.11 1021.52 1021.79 1022.16 1022.52 1022.91 1023.32 1023.84 1024.19 1024.23 1024.28 1024.52 1024.92 1024.92 1024.99 1025.47 1025.80 1025.99 1026.16 1026.28
1010.99 1011.59 1011.32 1009.59 1009.23 1009.40 1010.20 1010.72 1011.20 1011.64 1011.91 1012.28 1012.55 1012.99 1013.35 1013.72 1014.03 1014.35 1014.84 1015.40 1015.88 1016.47 1016.88 1017.35 1017.84 1018.20 1018.47 1018.76 1019.11 1019.67 1020.16 1020.59 1021.11 1021.59 1022.08 1022.52 1022.72 1023.20 1023.64 1024.07 1024.47 1024.52 1024.59 1025.07 1025.40 1025.23 1025.40 1025.68 1026.11 1026.44 1026.44 1026.64
1010.91 1011.35 1011.11 1010.64 1008.96 1008.91 1009.32 1010.23 1010.72 1011.32 1011.59 1011.99 1012.32 1012.76 1013.28 1013.67 1014.03 1014.32 1014.67 1015.11 1015.84 1016.28 1016.79 1017.28 1017.64 1017.99 1018.40 1018.67 1019.03 1019.59 1020.11 1020.64 1021.11 1021.59 1022.11 1022.59 1022.91 1023.52 1023.88 1024.28 1024.56 1024.76 1025.11 1025.56 1025.76 1025.64 1025.71 1025.95 1026.56 1026.92 1026.99 1027.04
1010.23 1010.76 1011.03 1010.88 1009.32 1008.72 1008.84 1009.59 1010.28 1010.79 1011.32 1011.67 1012.08 1012.52 1013.08 1013.55 1013.99 1014.28 1014.55 1014.91 1015.40 1016.16 1016.59 1017.16 1017.59 1017.99 1018.20 1018.52 1018.96 1019.59 1020.11 1020.55 1021.16 1021.52 1022.03 1022.43 1022.99 1023.67 1024.11 1024.40 1024.71 1024.88 1025.47 1025.88 1026.11 1026.11 1026.07 1026.52 1027.07 1027.23 1027.31 1027.44
1009.67 1010.16 1010.84 1010.88 1010.47 1008.84 1008.55 1008.91 1009.59 1010.35 1010.91 1011.35 1011.79 1012.20 1012.76 1013.40 1013.84 1014.20 1014.52 1014.79 1015.20 1015.79 1016.35 1016.88 1017.35 1017.76 1018.11 1018.52 1018.99 1019.59 1020.23 1020.64 1021.11 1021.52 1022.08 1022.43 1022.67 1023.59 1024.28 1024.47 1024.99 1025.23 1025.76 1026.16 1026.40 1026.52 1026.68 1027.07 1027.47 1027.64 1027.76 1027.88
1009.32 1009.47 1010.28 1010.76 1010.52 1009.96 1008.47 1008.55 1008.99 1009.72 1010.47 1011.11 1011.47 1011.88 1012.43 1013.08 1013.72 1014.11 1014.43 1014.67 1015.03 1015.47 1016.08 1016.59 1017.08 1017.55 1017.99 1018.40 1018.88 1019.55 1020.16 1020.64 1020.96 1021.32 1021.99 1022.64 1022.79 1023.03 1024.04 1024.64 1025.11 1025.68 1025.88 1026.40 1026.80 1027.04 1027.35 1027.68 1027.80 1027.99 1028.11 1028.23
1008.99 1008.88 1009.64 1010.23 1010.55 1010.47 1009.03 1008.20 1008.59 1009.11 1009.91 1010.64 1011.16 1011.59 1012.08 1012.72 1013.40 1013.91 1014.23 1014.55 1014.88 1015.35 1015.79 1016.28 1016.79 1017.40 1017.91 1018.35 1018.99 1019.55 1020.08 1020.64 1021.03 1021.40 1021.67 1022.59 1023.03 1023.16 1023.84 1024.76 1025.16 1025.80 1026.19 1026.64 1027.11 1027.59 1027.95 1028.28 1028.40 1028.59 1028.56 1028.68
1008.47 1008.35 1009.16 1010.52 1010.79 1010.67 1009.96 1007.99 1008.35 1008.76 1009.32 1010.11 1010.76 1011.23 1011.72 1012.32 1013.03 1013.52 1013.96 1014.32 1014.76 1015.20 1015.79 1016.23 1016.67 1017.20 1017.76 1018.23 1018.91 1019.52 1020.16 1020.76 1021.20 1021.55 1021.84 1022.28 1023.20 1023.52 1023.72 1024.40 1025.16 1025.76 1026.35 1026.92 1027.35 1027.95 1028.52 1028.71 1028.92 1029.04 1029.04 1029.11
1008.23 1008.23 1009.40 1010.23 1010.91 1010.84 1010.11 1008.23 1007.99 1008.55 1008.91 1009.47 1010.40 1010.91 1011.43 1012.08 1012.59 1013.11 1013.64 1014.08 1014.47 1014.96 1015.52 1015.99 1016.52 1017.03 1017.59 1018.11 1018.67 1019.35 1019.99 1020.59 1020.96 1021.28 1021.84 1022.32 1022.76 1023.64 1024.40 1024.71 1025.28 1025.80 1026.44 1027.11 1027.59 1028.28 1028.76 1029.07 1029.19 1029.40 1029.44 1029.52
1007.99 1008.52 1009.40 1010.11 1010.55 1010.59 1009.91 1008.35 1007.43 1008.23 1008.79 1009.20 1009.84 1010.64 1011.23 1011.79 1012.20 1012.76 1013.23 1013.72 1014.16 1014.76 1015.23 1015.76 1016.28 1016.88 1017.43 1017.84 1018.28 1018.76 1019.23 1019.72 1020.43 1020.99 1021.40 1021.96 1022.40 1023.08 1024.23 1025.23 1025.40 1025.92 1025.80 1026.47 1028.16 1028.59 1028.92 1029.28 1029.52 1029.71 1029.68 1029.95
1008.84 1008.43 1009.32 1009.91 1010.11 1009.88 1009.84 1009.28 1007.84 1007.99 1008.47 1008.79 1009.55 1010.43 1011.03 1011.52 1011.99 1012.40 1012.88 1013.28 1013.76 1014.32 1014.84 1015.43 1015.99 1016.55 1017.08 1017.55 1017.96 1018.40 1019.03 1019.76 1020.32 1020.91 1021.47 1021.96 1022.91 1023.16 1023.55 1024.88 1025.16 1025.35 1025.19 1026.44 1026.68 1028.28 1029.52 1029.59 1029.76 1030.04 1030.19 1030.35
1009.16 1008.99 1008.76 1009.47 1009.76 1009.32 1009.59 1009.67 1008.43 1007.88 1008.32 1008.96 1009.59 1010.32 1010.96 1011.47 1011.84 1012.23 1012.64 1013.03 1013.47 1013.99 1014.52 1014.96 1015.55 1016.16 1016.67 1017.16 1017.64 1018.43 1019.23 1019.72 1020.16 1020.47 1020.96 1021.40 1021.76 1023.23 1023.99 1024.59 1025.19 1024.92 1024.11 1025.44 1026.95 1026.99 1027.83 1029.44 1029.56 1030.31 1030.56 1030.68
1009.03 1008.79 1008.64 1008.72 1008.99 1008.76 1008.88 1009.47 1009.35 1007.59 1008.47 1009.11 1009.76 1010.43 1010.84 1011.32 1011.67 1012.08 1012.35 1012.76 1013.16 1013.72 1014.20 1014.64 1015.08 1015.67 1016.35 1016.76 1017.11 1017.64 1018.52 1019.23 1019.67 1020.16 1020.72 1021.16 1021.59 1021.99 1023.72 1024.44 1025.04 1024.68 1024.71 1024.76 1025.40 1026.92 1026.56 1028.11 1028.28 1029.52 1030.23 1030.95
1008.91 1008.64 1008.84 1008.20 1008.72 1008.59 1008.84 1009.16 1009.28 1008.32 1008.59 1009.35 1009.91 1010.55 1011.08 1011.23 1011.67 1012.08 1012.43 1012.55 1012.96 1013.35 1013.91 1014.47 1014.91 1015.28 1015.79 1016.35 1017.03 1017.55 1018.23 1018.91 1019.23 1019.47 1019.64 1020.11 1020.84 1021.23 1021.55 1023.32 1023.88 1024.44 1024.59 1024.59 1023.16 1023.79 1026.52 1028.16 1028.19 1026.76 1028.99 1030.64
1008.72 1008.47 1008.67 1008.52 1008.35 1008.59 1008.23 1009.28 1009.43 1009.28 1009.99 1009.91 1010.23 1010.55 1010.99 1011.64 1011.79 1012.11 1012.55 1012.88 1012.88 1013.28 1013.84 1014.40 1014.84 1015.40 1016.08 1016.79 1017.20 1017.35 1017.72 1018.35 1019.16 1019.84 1020.23 1020.20 1020.11 1020.88 1021.35 1021.43 1022.91 1023.72 1024.35 1024.07 1023.52 1023.28 1022.99 1023.11 1023.67 1026.68 1029.16 1028.28
1008.47 1008.43 1008.55 1008.76 1008.79 1008.35 1007.96 1008.59 1009.64 1010.11 1010.08 1010.84 1010.99 1011.32 1011.55 1011.72 1012.08 1012.28 1012.64 1013.20 1013.64 1013.72 1013.79 1014.11 1014.76 1015.47 1015.96 1016.52 1016.88 1017.47 1018.03 1018.52 1018.88 1019.23 1019.52 1020.03 1020.43 1020.64 1021.32 1021.79 1022.23 1022.88 1023.47 1024.16 1023.79 1023.43 1023.55 1023.64 1023.79 1025.07 1026.99 1027.99
Wind_Speed
21 22 23 24 25 25 25 24 24 23 22 22 21 19 19 18 19 21 19 15 16 15 15 16 16 16 18 19 18 18 18 18 19 19 20 18 17 17 15 12 10 9 9 9 8 7 10 10 10 10 8 6
18 20 22 23 24 24 24 24 24 24 24 22 21 20 19 19 17 17 19 18 17 15 14 14 15 16 17 19 18 19 18 17 18 19 18 18 17 16 14 12 11 10 10 9 10 11 12 11 11 11 10 6
15 19 20 21 22 23 24 24 24 24 21 20 20 18 20 19 19 17 17 19 17 15 14 14 14 13 14 17 19 19 19 18 18 18 17 16 16 15 14 13 11 11 10 11 12 13 12 12 11 11 8 6
12 16 19 20 21 22 23 23 23 23 23 22 22 21 21 20 17 17 15 18 16 17 15 15 11 12 13 15 18 18 18 16 17 17 17 17 16 15 13 12 13 13 14 15 13 14 13 12 11 7 6 7
13 14 18 17 19 20 21 21 22 22 23 22 21 20 20 18 15 12 12 13 11 15 12 14 13 13 13 13 15 17 16 14 16 17 17 16 16 15 13 13 14 12 14 14 14 14 13 12 8 7 6 7
12 12 16 14 13 14 16 17 18 17 15 17 15 20 17 13 12 11 10 10 11 9 12 13 15 15 14 12 11 13 15 13 15 17 17 16 16 15 12 11 7 8 12 15 14 13 13 9 7 7 8 8
13 15 13 14 13 12 15 14 15 14 15 13 14 15 14 12 11 11 11 10 10 10 14 14 16 17 15 12 11 10 13 14 15 16 17 17 15 14 13 7 5 6 7 9 14 12 9 7 7 8 9 8
13 14 14 13 12 11 12 13 12 13 13 13 13 14 13 12 12 12 10 13 16 14 10 11 15 16 15 14 13 15 12 15 15 15 14 14 15 11 5 4 5 6 6 6 7 7 8 7 8 8 8 7
13 14 14 13 13 12 11 12 12 12 13 13 14 14 12 13 12 12 10 10 9 9 9 8 8 9 8 8 9 13 8 7 9 9 7 7 7 5 5 5 5 6 4 6 8 8 7 7 8 8 7 7
13 16 13 13 13 12 11 12 11 11 12 13 15 12 12 12 13 12 11 11 10 10 9 9 8 7 8 9 10 10 8 7 7 7 7 6 5 5 5 5 5 5 3 8 7 9 7 7 8 7 8 8
12 13 13 13 12 13 12 12 11 11 12 13 14 14 13 13 12 12 11 11 11 11 9 9 8 8 8 9 9 9 9 9 8 7 6 5 5 5 6 6 5 6 4 7 9 10 8 7 7 7 7 8
13 12 13 13 13 13 12 13 12 11 12 13 14 14 13 12 12 13 12 12 12 11 10 10 9 9 9 9 9 9 8 10 8 8 6 7 6 7 7 7 6 6 5 5 9 11 9 7 7 7 7 6
11 12 13 13 13 12 13 11 12 11 12 12 12 14 15 13 13 12 12 13 12 11 11 10 10 10 10 10 9 9 9 9 9 8 8 8 7 7 7 7 6 6 5 5 7 11 9 8 7 7 7 6
10 13 13 14 14 13 12 12 11 12 11 11 13 13 14 15 14 13 13 13 11 13 12 11 11 10 11 11 10 10 10 9 9 8 8 9 9 8 8 8 5 7 6 7 7 10 10 8 6 7 7 6
13 13 15 15 13 14 13 13 12 11 11 11 12 12 14 14 14 13 12 13 13 11 12 12 11 11 11 10 10 10 10 9 9 8 8 9 8 8 8 8 4 7 6 7 7 8 11 9 6 7 6 6
3 12 15 15 15 14 14 14 12 11 11 11 11 13 13 13 13 13 12 14 13 13 12 12 11 11 11 10 10 10 10 11 10 8 8 9 9 8 8 8 6 6 8 8 6 7 11 8 8 7 6 7
3 7 12 15 15 13 14 12 12 12 11 11 12 12 14 12 13 12 13 13 14 13 13 13 12 11 11 11 11 10 12 12 10 9 9 9 9 9 8 9 7 7 8 8 5 7 9 9 8 6 6 6
3 7 8 13 13 14 17 12 13 13 11 10 11 12 14 13 13 12 12 13 12 12 12 12 12 12 11 10 12 11 11 11 10 11 11 10 10 9 9 9 9 9 8 7 5 7 8 9 7 6 6 6
5 0 7 11 12 14 16 13 12 13 12 11 11 12 13 14 13 13 14 13 14 12 12 12 11 11 11 11 12 11 10 11 10 11 12 11 12 9 9 8 8 10 8 8 7 7 8 9 7 6 5 6
5 3 2 5 12 12 16 14 14 13 13 11 11 12 13 14 14 13 14 14 14 13 12 12 12 11 10 12 11 11 11 11 11 11 11 10 13 12 10 10 9 8 9 8 8 7 8 8 7 6 6 6
5 6 2 6 9 11 16 14 14 14 13 11 12 12 13 14 14 13 14 14 14 13 13 12 12 11 13 13 12 12 11 11 10 12 11 9 10 13 11 10 11 9 9 9 7 8 9 8 6 5 6 6
2 7 5 5 10 10 13 17 14 14 14 12 12 13 13 15 15 14 15 15 14 12 13 12 12 11 13 13 12 12 11 10 10 10 13 11 9 12 12 10 11 10 9 8 8 8 8 8 8 7 7 6
6 6 6 3 9 12 15 15 14 15 15 13 12 13 15 16 15 14 16 15 14 13 12 12 12 13 14 12 12 12 11 11 11 11 11 14 10 9 11 12 11 11 9 9 9 9 9 8 8 7 7 6
2 7 7 3 6 12 13 13 15 14 15 15 13 13 15 16 15 15 15 16 15 14 13 13 12 14 14 13 13 13 13 12 12 14 15 15 15 13 10 10 11 12 12 11 12 11 10 9 8 9 7 8
3 6 4 2 3 6 11 11 14 14 14 14 14 15 16 16 15 16 16 16 16 14 14 13 13 14 13 14 14 15 16 16 15 13 13 13 14 17 15 10 11 11 14 15 11 8 9 9 8 8 8 8
2 6 6 1 3 1 6 9 9 12 13 15 14 16 15 15 14 16 16 16 16 16 16 14 14 14 15 14 13 13 13 14 14 15 13 13 11 11 16 12 13 13 13 7 13 11 6 7 7 7 7 7
2 1 8 6 1 2 2 8 9 10 11 12 13 14 14 14 13 15 15 16 15 15 15 16 15 14 14 15 14 13 13 15 16 15 17 17 16 12 10 11 10 14 8 11 8 10 12 6 5 2 4 4
2 2 5 8 6 3 3 2 10 13 11 12 13 14 14 13 13 14 14 16 16 14 15 16 16 15 14 15 15 15 16 16 17 16 15 15 16 17 14 12 12 11 6 12 16 8 2 7 6 7 5 4
1 3 1 11 3 4 6 2 6 5 9 10 11 11 11 12 12 12 12 16 16 16 16 15 15 15 15 15 15 14 15 15 16 17 17 19 18 20 19 16 13 11 8 14 11 14 9 4 4 4 8 8
1 2 1 0 8 3 6 5 3 7 6 3 10 12 8 7 9 9 9 8 14 14 14 15 15 14 13 11 11 13 15 14 14 14 14 16 17 17 14 18 16 13 8 13 8 2 2 6 8 11 11 10
1 1 1 1 2 2 9 8 1 2 7 7 5 4 7 8 7 9 9 8 6 9 12 15 14 14 14 13 12 11 12 13 15 15 16 14 13 14 13 13 16 16 13 9 6 2 2 4 5 14 16 6
Wind_Direction
185 179 180 176 174 173 174 170 168 168 167 177 171 169 166 165 164 164 162 159 143 145 151 154 156 155 154 154 154 149 147 153 152 151 150 147 148 150 147 142 139 129 116 99 90 95 102 97 95 94 96 94
190 184 181 179 175 174 173 169 169 167 168 169 168 168 163 164 161 167 161 146 145 151 154 153 151 155 156 155 154 144 150 155 155 155 150 148 149 146 144 143 135 123 107 100 104 106 100 95 94 93 91 96
194 187 184 181 177 175 172 170 167 164 162 162 160 165 159 162 163 169 154 147 147 151 147 146 153 158 152 152 153 149 154 160 160 154 151 149 144 142 141 135 126 113 108 107 108 106 101 98 92 89 91 94
192 190 186 184 181 176 172 170 167 161 163 161 156 162 158 158 164 160 154 148 146 147 146 148 154 149 143 151 156 150 153 164 157 152 152 143 142 141 133 130 122 117 116 115 110 106 103 98 93 89 94 101
187 191 189 188 184 177 174 169 166 163 159 154 159 157 159 159 158 156 150 149 148 148 147 150 153 143 144 156 156 151 157 166 148 153 144 146 143 133 126 126 121 117 117 114 111 107 103 99 94 97 102 101
183 183 189 189 187 180 174 169 163 160 159 159 158 156 159 157 155 151 148 149 149 147 145 147 144 142 146 155 154 149 151 157 146 143 142 145 137 123 122 115 108 114 115 115 111 107 104 99 102 106 103 99
178 177 181 186 186 183 176 170 162 162 160 160 158 157 156 154 150 151 149 150 154 151 147 145 141 144 149 151 153 144 135 123 125 140 143 139 131 114 114 112 107 112 114 114 108 106 100 100 106 104 100 98
178 174 178 180 182 179 180 172 167 163 160 160 162 158 156 153 150 148 148 151 148 141 140 140 138 141 140 136 131 120 120 124 128 132 129 127 126 114 115 109 114 110 108 123 112 112 102 106 105 102 103 103
181 176 175 176 177 176 175 175 171 165 163 160 163 161 156 152 148 145 147 146 144 142 140 139 140 139 136 135 125 124 119 123 124 121 123 117 112 112 116 108 105 107 116 116 117 108 104 104 103 102 101 99
180 175 176 174 174 173 176 174 171 167 166 162 163 161 155 150 148 146 147 149 145 144 144 143 143 139 136 135 131 127 128 121 120 118 117 123 125 115 108 100 97 97 113 113 122 108 107 104 102 102 101 102
182 179 180 176 175 173 177 176 172 170 168 165 163 157 156 153 152 150 150 150 148 147 147 146 145 143 144 137 133 134 133 131 130 124 123 121 115 104 101 98 93 95 85 114 121 107 103 95 97 97 99 101
193 187 178 179 174 177 178 174 175 172 170 165 163 158 158 155 153 152 153 152 151 150 149 149 147 146 143 136 136 135 135 135 131 129 126 121 108 109 109 108 97 90 79 103 118 107 104 92 96 94 88 82
191 191 184 177 178 180 173 182 177 172 168 167 163 161 158 157 155 157 156 154 155 151 151 150 151 151 147 143 141 138 138 138 134 132 131 122 120 119 120 104 93 93 78 90 111 110 105 94 95 94 88 84
226 188 190 185 179 176 169 181 176 170 173 169 165 165 162 160 157 161 158 155 155 154 153 153 154 154 151 149 146 143 142 142 138 137 131 123 122 124 117 101 96 102 91 87 101 109 107 96 88 92 89 82
267 220 192 184 179 175 173 174 174 174 174 171 170 166 162 160 158 158 158 155 156 156 153 155 158 156 153 149 149 146 141 141 138 141 135 128 125 120 112 107 104 108 100 89 85 105 105 102 87 87 85 81
301 264 203 186 177 175 173 170 174 173 172 174 169 163 164 161 159 159 158 156 157 156 156 158 160 157 154 151 148 144 142 138 138 135 124 117 114 108 105 108 106 102 106 86 88 104 102 101 92 81 87 83
281 286 273 198 184 166 169 172 171 174 175 170 165 165 163 163 160 160 158 160 158 158 158 159 159 158 157 151 146 143 140 135 130 123 119 117 117 109 106 109 106 91 90 95 103 104 97 96 86 77 82 84
181 257 261 243 189 171 172 176 169 175 172 168 165 164 165 163 164 163 160 157 158 158 158 160 161 158 155 150 143 139 140 138 138 133 130 131 120 120 120 120 119 109 95 88 86 90 93 85 81 82 80 77
131 273 334 277 207 177 171 167 172 169 172 168 166 165 164 165 165 165 162 161 157 160 159 159 160 160 156 148 143 142 144 140 138 134 136 136 125 121 115 114 114 113 104 101 91 83 87 90 82 76 61 73
108 118 256 293 269 190 176 166 164 168 171 168 167 167 165 166 166 167 165 162 160 158 161 162 161 161 152 148 143 141 141 141 142 137 134 138 133 126 121 115 106 104 111 102 90 81 79 81 79 80 72 68
147 83 20 307 310 248 179 173 166 163 169 168 169 170 165 166 167 169 167 164 163 160 162 163 161 158 154 151 147 145 145 145 144 140 135 139 138 133 128 119 112 103 109 103 86 80 76 71 60 50 63 60
124 117 95 6 302 280 212 173 166 165 168 170 171 168 167 166 167 170 168 167 164 163 162 162 159 154 153 149 146 144 145 144 142 139 137 134 136 133 128 125 119 112 103 103 96 80 71 72 62 54 60 52
162 113 72 320 295 292 247 178 169 166 169 170 169 171 167 166 169 169 169 168 165 162 162 161 158 155 155 150 147 146 141 141 144 141 140 134 130 126 128 132 127 119 112 102 95 85 75 70 67 61 55 54
90 93 95 27 319 303 259 202 166 171 171 167 171 169 167 169 169 169 169 169 168 163 165 162 160 157 155 152 151 150 147 150 153 151 144 140 135 126 116 119 122 120 113 98 88 87 79 67 65 63 60 56
134 116 92 156 225 296 282 216 167 167 168 171 168 169 170 171 171 170 169 170 167 167 165 163 160 158 157 157 158 158 161 158 153 149 145 141 140 136 131 129 132 131 125 114 84 76 79 76 60 56 57 54
290 115 131 159 214 195 331 279 182 168 172 168 167 168 172 173 172 170 171 170 169 166 166 163 162 162 163 162 163 160 153 150 147 146 145 143 134 141 138 142 151 151 131 116 141 131 102 74 71 59 52 56
263 137 131 134 210 86 327 309 230 170 163 159 163 170 172 172 174 172 173 171 168 166 166 164 163 166 164 165 157 151 153 155 155 155 153 154 147 143 137 137 163 164 169 131 128 126 114 152 125 43 61 62
262 182 159 132 148 165 125 91 287 154 152 156 159 170 173 174 174 176 173 173 168 168 168 166 166 164 167 168 164 158 158 162 160 159 158 156 151 145 144 156 172 187 161 148 140 150 176 145 126 137 211 132
276 84 254 116 110 128 83 26 359 21 118 145 158 156 171 175 172 175 180 174 171 168 167 166 166 169 167 164 164 159 158 164 168 168 165 160 156 163 160 163 164 185 172 179 172 132 120 113 208 207 128 122
132 131 187 129 135 111 78 42 0 37 22 122 161 170 153 149 163 159 160 176 167 163 161 165 166 161 156 161 161 166 165 161 159 163 166 171 168 166 167 158 162 164 188 193 208 263 58 153 167 150 162 142
141 127 201 241 27 164 129 106 356 357 97 32 31 65 141 148 150 154 146 137 151 161 165 164 160 157 161 161 159 156 159 163 168 170 174 171 170 169 164 163 162 169 173 193 244 236 62 67 95 134 142 182